FREGAT DEB, 46002

Orbit data source: Space-Track

FREGAT DEB, 46002 is space debris in LEO originally from a launch on Mon, 18 Jul 2011 UTC launched from the Tyuratam Missile And Space Complex (TTMTR). Debris objects in space refer to the collection of defunct objects orbiting the Earth. Examples of debris include non-operational satellites, rocket bodies, and fragments generated from explosions, collisions, or faulty payload assembly.

Loading next visibility...
FREGAT DEB details
Identifier
46002, 2011-037HD
Orbit
LEO
Last TLE update2 days ago
Origin
Flag of CISVVKO VKS (CIS)
ManufacturerLavochkin
MissionSpacecraft
Bus & MotorUnknown
MassUnknown
Launch date (UTC)
2011-07-18 (13 years ago)
Launch vehicleUnknown
Launch site
Tyuratam Missile And Space Complex (TTMTR)
Object type
Payload
Rocket body
Debris
Shape & HBRUnknown
Radar Cross SectionSmall (<0.1 m²)

Expand to show TLE details & history

TLE from 2 days ago
0 FREGAT DEB
1 46002U 11037HD  24359.77740423  .00183008  00000-0  22150+0 0  9990
2 46002  51.3018 140.3855 1704054 183.6115 175.0867 11.12161099166697
Epoch: 2024-12-24T18:39Z
Definitive object data (Epoch: 2024-12-24T18:39:27.725Z)
Latitude-0.00003°
Longitude126.73932°
Altitude3,541.131 km
Speed5.777 km/s
True Right ascension09h 21m 32s
True Declination0° 00' 00"
Sunlit
Object was in daylight at TLE epoch
Visualization TLE readout
Latitude31.52535°
Longitude-87.00523°
Altitude1,026.059 km
Speed7.792 km/s
Apparent Right ascension21h 58m 14s
Apparent Declination-1° 47' 49"
Sunlit
Object is in daylight
Visualization observer readout
Local Sidereal Time14:03:52
Azimuth72.134° E
Elevation-22.768°
Doppler factor1
Orbital elements
Apogee altitude3,545.038 km
Perigee altitude655.505 km
Semi-major axis8,478.408 km
Eccentricity0.1704054
Inclination51.3018°
RAAN140.3855°
Arg. of periapsis183.6115°
True anomaly176.46479°
Mean anomaly175.0867°
Eccentric anomaly175.80151°
Mean motion2.78017 °/min
BSTAR0.2215
Orbital period129.49 mins
Loading maneuver chart data...
Loading historical data...
Loading historical data...
Loading historical data...
Loading historical data...
Loading historical data...
Loading historical data...
Loading historical data...

FREGAT DEB Visibility forecast

Observer location: undefined°, undefined

Span
Click to sort rows by Start time (UTC) header in descending order
Start Az.
Max El. time (UTC)
Max El. Az.
Max El.
End time (UTC)
End Az.
20 mins2024-12-26 16:26:59.390Z295.186° NW2024-12-26 16:39:59.390Z7.895° NNE36.734°2024-12-26 16:46:59.390Z77.738° E
15 mins2024-12-26 18:47:59.390Z305.659° NW2024-12-26 18:56:59.390Z252.918° W44.902°2024-12-26 19:02:59.390Z130.922° SE
28 mins2024-12-27 09:11:59.390Z168.679° S2024-12-27 09:26:59.390Z118.31° SE27.787°2024-12-27 09:39:59.390Z67.556° E
33 mins2024-12-27 11:24:59.390Z217.89° SW2024-12-27 11:43:59.390Z135.813° SSE44.34°2024-12-27 11:57:59.390Z55.051° ENE
28 mins2024-12-27 13:45:59.390Z261.057° W2024-12-27 14:02:59.390Z340.858° N40.811°2024-12-27 14:13:59.390Z57.619° ENE
|